| time (UTC) | temp F | wind direction | speed knots | gust knots | rain 1hr in | rain 24hr in | rain mn in | humidity % | barometer mb |
| 20260506134502 | 49 | 74 | 0.9 | 3.5 | 0.00 | 0.03 | 0.00 | 90 | 1022.0 |
| 20260506134100 | 49 | 74 | 1.7 | 2.6 | 0.00 | 0.03 | 0.00 | 90 | 1021.9 |
| 20260506133559 | 49 | 74 | 0.9 | 3.5 | 0.00 | 0.03 | 0.00 | 89 | 1021.9 |
| 20260506133113 | 49 | 76 | 1.7 | 3.5 | 0.00 | 0.03 | 0.00 | 89 | 1021.9 |
| 20260506132557 | 49 | 77 | 1.7 | 3.5 | 0.00 | 0.03 | 0.00 | 89 | 1022.0 |
| 20260506132056 | 49 | 61 | 0.9 | 2.6 | 0.00 | 0.03 | 0.00 | 89 | 1021.9 |
| 20260506131603 | 49 | 54 | 1.7 | 3.5 | 0.00 | 0.03 | 0.00 | 89 | 1021.9 |
| 20260506131056 | 49 | 53 | 1.7 | 3.5 | 0.00 | 0.03 | 0.00 | 89 | 1021.9 |
| 20260506130555 | 49 | 55 | 1.7 | 3.5 | 0.00 | 0.03 | 0.00 | 89 | 1021.8 |
| 20260506130057 | 49 | 76 | 1.7 | 2.6 | 0.00 | 0.03 | 0.00 | 89 | 1021.8 |
| 20260506125553 | 49 | 80 | 0.9 | 2.6 | 0.00 | 0.03 | 0.00 | 89 | 1021.8 |
| 20260506125053 | 49 | 80 | 1.7 | 3.5 | 0.00 | 0.03 | 0.00 | 89 | 1021.7 |
| 20260506124559 | 49 | 80 | 1.7 | 3.5 | 0.00 | 0.03 | 0.00 | 89 | 1021.7 |
| 20260506124053 | 49 | 83 | 1.7 | 2.6 | 0.00 | 0.03 | 0.00 | 89 | 1021.7 |
| 20260506123553 | 49 | 83 | 0.9 | 2.6 | 0.00 | 0.03 | 0.00 | 89 | 1021.5 |
| 20260506123053 | 49 | 83 | 0.9 | 3.5 | 0.00 | 0.03 | 0.00 | 89 | 1021.7 |
| 20260506122553 | 49 | 84 | 0.9 | 3.5 | 0.00 | 0.03 | 0.00 | 89 | 1021.6 |
| 20260506122052 | 49 | 82 | 1.7 | 3.5 | 0.00 | 0.03 | 0.00 | 89 | 1021.5 |
| 20260506121553 | 49 | 82 | 1.7 | 4.3 | 0.00 | 0.03 | 0.00 | 90 | 1021.6 |
| 20260506121052 | 49 | 82 | 1.7 | 3.5 | 0.00 | 0.03 | 0.00 | 90 | 1021.4 |
| 20260506120556 | 49 | 83 | 1.7 | 2.6 | 0.00 | 0.03 | 0.00 | 90 | 1021.5 |
| 20260506120052 | 49 | 83 | 0.9 | 5.2 | 0.00 | 0.03 | 0.00 | 91 | 1021.5 |
| 20260506115552 | 49 | 83 | 1.7 | 5.2 | 0.00 | 0.04 | 0.00 | 91 | 1021.4 |
| 20260506115051 | 49 | 84 | 1.7 | 3.5 | 0.00 | 0.04 | 0.00 | 91 | 1021.7 |
| 20260506114553 | 49 | 90 | 1.7 | 3.5 | 0.00 | 0.04 | 0.00 | 91 | 1021.5 |
| 20260506114051 | 49 | 86 | 1.7 | 3.5 | 0.00 | 0.04 | 0.00 | 91 | 1021.4 |
| 20260506113552 | 49 | 87 | 1.7 | 3.5 | 0.00 | 0.04 | 0.00 | 92 | 1021.5 |
| 20260506113051 | 49 | 90 | 1.7 | 3.5 | 0.00 | 0.04 | 0.00 | 92 | 1021.5 |
| 20260506112555 | 48 | 84 | 1.7 | 3.5 | 0.00 | 0.04 | 0.00 | 92 | 1021.4 |
| 20260506112050 | 48 | 84 | 1.7 | 3.5 | 0.00 | 0.04 | 0.00 | 92 | 1021.5 |
| 20260506111550 | 48 | 86 | 1.7 | 3.5 | 0.00 | 0.04 | 0.00 | 92 | 1021.4 |
| 20260506111049 | 48 | 86 | 1.7 | 3.5 | 0.00 | 0.04 | 0.00 | 92 | 1021.4 |
| 20260506110551 | 48 | 86 | 1.7 | 3.5 | 0.00 | 0.04 | 0.00 | 92 | 1021.4 |
| 20260506110049 | 48 | 99 | 0.9 | 2.6 | 0.00 | 0.04 | 0.00 | 92 | 1021.3 |
| 20260506105549 | 48 | 100 | 1.7 | 2.6 | 0.00 | 0.05 | 0.00 | 92 | 1021.3 |
| 20260506105051 | 48 | 107 | 1.7 | 2.6 | 0.00 | 0.05 | 0.00 | 92 | 1021.3 |
| 20260506104550 | 48 | 159 | 0.9 | 2.6 | 0.00 | 0.05 | 0.00 | 92 | 1021.4 |
| 20260506104048 | 48 | 198 | 0.9 | 1.7 | 0.00 | 0.05 | 0.00 | 92 | 1021.3 |
| 20260506103547 | 48 | 198 | 0.0 | 1.7 | 0.00 | 0.05 | 0.00 | 92 | 1021.4 |
| 20260506103047 | 48 | 198 | 0.0 | 2.6 | 0.00 | 0.05 | 0.00 | 92 | 1021.4 |
| 20260506102547 | 48 | 198 | 0.9 | 2.6 | 0.00 | 0.05 | 0.00 | 92 | 1021.4 |
| 20260506102047 | 48 | 199 | 0.9 | 2.6 | 0.00 | 0.05 | 0.00 | 92 | 1021.3 |
| 20260506101547 | 48 | 200 | 0.9 | 2.6 | 0.00 | 0.05 | 0.00 | 92 | 1021.2 |
| 20260506101046 | 48 | 200 | 0.9 | 2.6 | 0.00 | 0.05 | 0.00 | 92 | 1021.2 |
| 20260506100547 | 48 | 200 | 0.9 | 3.5 | 0.00 | 0.05 | 0.00 | 92 | 1021.2 |
| 20260506100046 | 48 | 202 | 0.9 | 3.5 | 0.00 | 0.05 | 0.00 | 92 | 1021.1 |
| 20260506095547 | 48 | 203 | 0.9 | 1.7 | 0.00 | 0.07 | 0.00 | 92 | 1021.2 |
| 20260506095045 | 48 | 267 | 0.0 | 0.9 | 0.00 | 0.07 | 0.00 | 92 | 1021.1 |
| 20260506094601 | 48 | 267 | 0.0 | 0.0 | 0.00 | 0.07 | 0.00 | 92 | 1021.0 |
| 20260506094045 | 48 | 267 | 0.0 | 0.9 | 0.00 | 0.07 | 0.00 | 92 | 1021.0 |
| 20260506093544 | 48 | 267 | 0.0 | 1.7 | 0.00 | 0.07 | 0.00 | 92 | 1021.0 |
| 20260506093044 | 48 | 267 | 0.0 | 1.7 | 0.00 | 0.07 | 0.00 | 92 | 1020.9 |
| 20260506092545 | 48 | 267 | 0.0 | 1.7 | 0.00 | 0.07 | 0.00 | 92 | 1020.9 |
| 20260506092045 | 48 | 267 | 0.0 | 2.6 | 0.00 | 0.07 | 0.00 | 92 | 1020.8 |
| 20260506091546 | 48 | 267 | 0.0 | 2.6 | 0.00 | 0.07 | 0.00 | 92 | 1020.9 |
| 20260506091044 | 48 | 256 | 0.9 | 2.6 | 0.00 | 0.07 | 0.00 | 91 | 1020.8 |
| 20260506090543 | 48 | 254 | 0.9 | 2.6 | 0.00 | 0.07 | 0.00 | 91 | 1020.9 |
| 20260506090043 | 48 | 322 | 0.9 | 2.6 | 0.00 | 0.07 | 0.00 | 91 | 1020.7 |
| 20260506085542 | 48 | 322 | 0.9 | 2.6 | 0.00 | 0.10 | 0.00 | 91 | 1020.7 |
| 20260506085043 | 48 | 323 | 0.0 | 2.6 | 0.00 | 0.10 | 0.00 | 91 | 1020.6 |
| 20260506084544 | 48 | 292 | 0.9 | 2.6 | 0.00 | 0.10 | 0.00 | 91 | 1020.5 |
| 20260506084041 | 48 | 290 | 0.9 | 2.6 | 0.00 | 0.10 | 0.00 | 91 | 1020.5 |
| 20260506083543 | 48 | 289 | 0.9 | 3.5 | 0.00 | 0.10 | 0.00 | 91 | 1020.3 |
| 20260506083041 | 48 | 289 | 1.7 | 3.5 | 0.00 | 0.10 | 0.00 | 91 | 1020.3 |
| 20260506082539 | 48 | 252 | 0.9 | 2.6 | 0.00 | 0.10 | 0.00 | 91 | 1020.4 |
| 20260506082039 | 48 | 186 | 0.0 | 1.7 | 0.00 | 0.10 | 0.00 | 90 | 1020.4 |
| 20260506081539 | 48 | 186 | 0.0 | 2.6 | 0.00 | 0.10 | 0.00 | 90 | 1020.5 |
| 20260506081038 | 49 | 186 | 0.0 | 2.6 | 0.00 | 0.10 | 0.00 | 90 | 1020.5 |
| 20260506080537 | 49 | 181 | 0.0 | 1.7 | 0.00 | 0.10 | 0.00 | 91 | 1020.7 |
| 20260506073032 | 50 | 111 | 0.9 | 3.5 | 0.00 | 0.13 | 0.00 | 90 | 1021.7 |
| 20260506072534 | 50 | 35 | 1.7 | 3.5 | 0.00 | 0.13 | 0.00 | 90 | 1021.9 |
| 20260506072030 | 50 | 77 | 0.9 | 1.7 | 0.00 | 0.13 | 0.00 | 89 | 1021.4 |
| 20260506071531 | 50 | 77 | 0.0 | 1.7 | 0.00 | 0.13 | 0.00 | 89 | 1021.2 |
| 20260506071027 | 50 | 77 | 0.9 | 1.7 | 0.00 | 0.13 | 0.00 | 89 | 1021.1 |
| 20260506070526 | 49 | 91 | 0.0 | 1.7 | 0.00 | 0.13 | 0.00 | 90 | 1021.0 |
| 20260506062023 | 49 | 36 | 0.9 | 2.6 | 0.00 | 0.15 | 0.13 | 90 | 1020.4 |
| 20260506061523 | 49 | 325 | 0.0 | 1.7 | 0.00 | 0.15 | 0.13 | 89 | 1020.4 |
| 20260506061024 | 49 | 283 | 0.0 | 0.9 | 0.00 | 0.15 | 0.13 | 90 | 1020.4 |
| 20260506060527 | 49 | 283 | 0.0 | 0.9 | 0.00 | 0.15 | 0.13 | 90 | 1020.3 |
| 20260506051020 | 50 | 283 | 0.0 | 0.9 | 0.00 | 0.15 | 0.13 | 89 | 1020.1 |
| 20260506050518 | 50 | 284 | 0.0 | 0.9 | 0.00 | 0.15 | 0.13 | 89 | 1019.9 |
| 20260506045015 | 50 | 285 | 0.0 | 0.9 | 0.00 | 0.15 | 0.13 | 89 | 1019.8 |
| 20260506044516 | 50 | 285 | 0.0 | 0.9 | 0.00 | 0.15 | 0.13 | 89 | 1019.6 |
| 20260506044015 | 50 | 285 | 0.0 | 0.9 | 0.00 | 0.15 | 0.13 | 89 | 1019.6 |
| 20260506043515 | 50 | 285 | 0.0 | 0.0 | 0.00 | 0.15 | 0.13 | 89 | 1019.7 |
| 20260506043015 | 50 | 285 | 0.0 | 0.0 | 0.00 | 0.15 | 0.13 | 89 | 1019.7 |
| 20260506042515 | 50 | 285 | 0.0 | 0.9 | 0.00 | 0.15 | 0.13 | 89 | 1019.6 |
| 20260506042015 | 50 | 285 | 0.0 | 0.9 | 0.00 | 0.15 | 0.13 | 89 | 1019.6 |
| 20260506041516 | 50 | 285 | 0.0 | 0.0 | 0.00 | 0.15 | 0.13 | 89 | 1019.5 |
| 20260506041013 | 50 | 285 | 0.0 | 0.0 | 0.00 | 0.15 | 0.13 | 89 | 1019.6 |
| 20260506040513 | 50 | 285 | 0.0 | 0.9 | 0.00 | 0.15 | 0.13 | 89 | 1019.5 |
| 20260506040013 | 50 | 285 | 0.0 | 0.0 | 0.00 | 0.15 | 0.13 | 89 | 1019.4 |
| 20260506035516 | 50 | 285 | 0.0 | 0.0 | 0.00 | 0.15 | 0.13 | 89 | 1019.4 |
| 20260506035011 | 50 | 285 | 0.0 | 0.0 | 0.00 | 0.15 | 0.13 | 89 | 1019.3 |
| 20260506034511 | 50 | 285 | 0.0 | 0.0 | 0.00 | 0.15 | 0.13 | 89 | 1019.1 |
| 20260506034009 | 50 | 285 | 0.0 | 0.0 | 0.00 | 0.15 | 0.13 | 89 | 1019.0 |
| 20260506033508 | 50 | 285 | 0.0 | 0.0 | 0.00 | 0.15 | 0.13 | 89 | 1018.9 |
| 20260506033008 | 50 | 285 | 0.0 | 0.0 | 0.00 | 0.15 | 0.13 | 89 | 1018.8 |
| 20260506032508 | 50 | 285 | 0.0 | 0.0 | 0.00 | 0.15 | 0.13 | 88 | 1018.8 |
| 20260506032008 | 50 | 285 | 0.0 | 0.0 | 0.00 | 0.15 | 0.13 | 88 | 1018.7 |
| 20260506031508 | 50 | 285 | 0.0 | 0.0 | 0.00 | 0.15 | 0.13 | 88 | 1018.6 |
| 20260506031010 | 50 | 285 | 0.0 | 0.9 | 0.00 | 0.15 | 0.13 | 88 | 1018.6 |
| 20260506030508 | 50 | 285 | 0.0 | 0.9 | 0.00 | 0.15 | 0.13 | 88 | 1018.6 |
| 20260506030016 | 50 | 285 | 0.0 | 1.7 | 0.00 | 0.15 | 0.13 | 88 | 1018.6 |
| 20260506025506 | 50 | 285 | 0.0 | 1.7 | 0.00 | 0.15 | 0.13 | 88 | 1018.7 |
| 20260506025006 | 50 | 285 | 0.0 | 0.9 | 0.00 | 0.15 | 0.13 | 88 | 1018.6 |
| 20260506024516 | 50 | 285 | 0.0 | 0.0 | 0.00 | 0.15 | 0.13 | 88 | 1018.6 |
| 20260506024005 | 50 | 285 | 0.0 | 0.0 | 0.00 | 0.15 | 0.13 | 87 | 1018.6 |
| 20260506023505 | 50 | 285 | 0.0 | 0.0 | 0.00 | 0.15 | 0.13 | 87 | 1018.5 |
| 20260506023005 | 50 | 285 | 0.0 | 0.0 | 0.00 | 0.15 | 0.13 | 87 | 1018.4 |
| 20260506022504 | 50 | 285 | 0.0 | 0.0 | 0.00 | 0.15 | 0.13 | 87 | 1018.3 |
| 20260506022004 | 50 | 285 | 0.0 | 0.0 | 0.00 | 0.15 | 0.13 | 87 | 1018.3 |
| 20260506021504 | 50 | 285 | 0.0 | 0.0 | 0.00 | 0.15 | 0.13 | 87 | 1018.2 |
| 20260506021003 | 50 | 285 | 0.0 | 0.0 | 0.00 | 0.15 | 0.13 | 86 | 1018.2 |
| 20260506020503 | 50 | 285 | 0.0 | 0.0 | 0.00 | 0.15 | 0.13 | 86 | 1018.3 |
| 20260506020005 | 50 | 285 | 0.0 | 0.0 | 0.00 | 0.15 | 0.13 | 86 | 1018.1 |
| 20260506015503 | 50 | 285 | 0.0 | 0.0 | 0.00 | 0.15 | 0.13 | 86 | 1018.3 |
| 20260506015003 | 50 | 285 | 0.0 | 1.7 | 0.00 | 0.15 | 0.13 | 86 | 1018.3 |
| 20260506014502 | 51 | 285 | 0.0 | 1.7 | 0.00 | 0.15 | 0.13 | 86 | 1018.3 |
| 20260506014002 | 50 | 285 | 0.0 | 2.6 | 0.00 | 0.15 | 0.13 | 86 | 1018.2 |
| 20260506013501 | 51 | 284 | 0.9 | 2.6 | 0.00 | 0.15 | 0.13 | 87 | 1018.2 |
| 20260506013002 | 51 | 282 | 0.0 | 1.7 | 0.00 | 0.15 | 0.13 | 87 | 1018.3 |
| 20260506012502 | 51 | 282 | 0.0 | 1.7 | 0.00 | 0.15 | 0.13 | 87 | 1018.4 |
| 20260506012059 | 51 | 281 | 0.0 | 1.7 | 0.00 | 0.15 | 0.13 | 86 | 1018.3 |
| 20260506011559 | 51 | 281 | 0.0 | 2.6 | 0.00 | 0.15 | 0.13 | 86 | 1018.3 |
| 20260506011101 | 51 | 284 | 0.0 | 1.7 | 0.00 | 0.15 | 0.13 | 85 | 1018.2 |
| 20260506010600 | 51 | 283 | 0.0 | 1.7 | 0.00 | 0.15 | 0.13 | 85 | 1018.2 |
| 20260506010057 | 51 | 281 | 0.0 | 1.7 | 0.00 | 0.15 | 0.13 | 85 | 1018.2 |
| 20260506005559 | 52 | 310 | 0.0 | 1.7 | 0.00 | 0.15 | 0.13 | 85 | 1018.3 |
| 20260506005055 | 52 | 310 | 0.0 | 0.9 | 0.00 | 0.15 | 0.13 | 84 | 1018.2 |
| 20260506004556 | 52 | 311 | 0.0 | 2.6 | 0.00 | 0.15 | 0.13 | 84 | 1018.2 |
| 20260506004055 | 52 | 311 | 0.9 | 2.6 | 0.00 | 0.15 | 0.13 | 84 | 1018.2 |
| 20260506003553 | 52 | 311 | 0.0 | 0.9 | 0.00 | 0.15 | 0.13 | 85 | 1018.3 |
| 20260506003053 | 52 | 311 | 0.0 | 0.9 | 0.00 | 0.15 | 0.13 | 86 | 1018.2 |
| 20260506002551 | 52 | 311 | 0.0 | 0.9 | 0.00 | 0.15 | 0.13 | 86 | 1018.2 |
| 20260506002050 | 51 | 311 | 0.0 | 0.9 | 0.00 | 0.15 | 0.13 | 85 | 1018.2 |
| 20260506001551 | 52 | 311 | 0.0 | 0.9 | 0.00 | 0.15 | 0.13 | 85 | 1018.3 |
| 20260506001050 | 52 | 311 | 0.0 | 0.0 | 0.00 | 0.15 | 0.13 | 85 | 1018.3 |
| 20260506000549 | 52 | 311 | 0.0 | 1.7 | 0.00 | 0.15 | 0.13 | 85 | 1018.2 |
| 20260506000052 | 51 | 311 | 0.0 | 1.7 | 0.00 | 0.15 | 0.13 | 85 | 1018.3 |
| 20260505235549 | 51 | 300 | 0.0 | 2.6 | 0.00 | 0.15 | 0.13 | 85 | 1018.3 |
| 20260505235049 | 51 | 300 | 0.9 | 2.6 | 0.00 | 0.15 | 0.13 | 85 | 1018.2 |
| 20260505234553 | 51 | 300 | 0.0 | 2.6 | 0.00 | 0.15 | 0.13 | 85 | 1018.3 |
| 20260505234051 | 51 | 300 | 0.0 | 2.6 | 0.00 | 0.15 | 0.13 | 85 | 1018.2 |
| 20260505233548 | 51 | 291 | 0.0 | 2.6 | 0.00 | 0.15 | 0.13 | 84 | 1018.0 |
| 20260505233049 | 51 | 290 | 0.9 | 2.6 | 0.00 | 0.15 | 0.13 | 84 | 1018.0 |
| 20260505232548 | 51 | 292 | 0.0 | 1.7 | 0.00 | 0.15 | 0.13 | 84 | 1018.1 |
| 20260505232048 | 51 | 291 | 0.0 | 1.7 | 0.00 | 0.15 | 0.13 | 84 | 1018.1 |
| 20260505231559 | 51 | 292 | 0.0 | 2.6 | 0.00 | 0.15 | 0.13 | 85 | 1018.0 |
| 20260505231048 | 51 | 291 | 0.0 | 3.5 | 0.00 | 0.15 | 0.13 | 85 | 1018.1 |
| 20260505230548 | 51 | 292 | 0.0 | 1.7 | 0.00 | 0.15 | 0.13 | 84 | 1018.0 |
| 20260505230056 | 51 | 291 | 0.0 | 1.7 | 0.00 | 0.15 | 0.13 | 84 | 1018.0 |
| 20260505225547 | 51 | 291 | 0.0 | 3.5 | 0.00 | 0.15 | 0.13 | 84 | 1018.1 |
| 20260505225053 | 52 | 291 | 0.9 | 3.5 | 0.00 | 0.15 | 0.13 | 84 | 1018.1 |
| 20260505224548 | 52 | 302 | 0.0 | 1.7 | 0.00 | 0.15 | 0.13 | 84 | 1018.1 |
| 20260505224046 | 52 | 302 | 0.0 | 1.7 | 0.00 | 0.15 | 0.13 | 84 | 1018.1 |
| 20260505223546 | 52 | 302 | 0.0 | 1.7 | 0.00 | 0.15 | 0.13 | 84 | 1018.1 |
| 20260505223046 | 52 | 302 | 0.0 | 1.7 | 0.00 | 0.15 | 0.13 | 84 | 1018.2 |
| 20260505222546 | 52 | 302 | 0.0 | 1.7 | 0.00 | 0.15 | 0.13 | 84 | 1018.3 |
| 20260505222045 | 52 | 304 | 0.9 | 1.7 | 0.00 | 0.15 | 0.13 | 85 | 1018.2 |
| 20260505221545 | 51 | 271 | 0.0 | 1.7 | 0.00 | 0.15 | 0.13 | 85 | 1018.2 |
| 20260505221044 | 51 | 267 | 0.0 | 2.6 | 0.00 | 0.15 | 0.13 | 84 | 1018.2 |
| 20260505220544 | 51 | 265 | 0.0 | 3.5 | 0.00 | 0.15 | 0.13 | 84 | 1018.2 |
| 20260505220044 | 51 | 290 | 0.9 | 4.3 | 0.00 | 0.15 | 0.13 | 85 | 1018.2 |
| 20260505215543 | 51 | 288 | 0.9 | 4.3 | 0.00 | 0.16 | 0.13 | 86 | 1018.1 |
| 20260505215043 | 50 | 296 | 0.9 | 3.5 | 0.00 | 0.16 | 0.13 | 86 | 1018.1 |
| 20260505214543 | 50 | 275 | 0.0 | 5.2 | 0.00 | 0.16 | 0.13 | 86 | 1018.2 |
| 20260505214042 | 50 | 284 | 1.7 | 5.2 | 0.00 | 0.16 | 0.13 | 85 | 1018.3 |
| 20260505213542 | 50 | 228 | 0.0 | 3.5 | 0.00 | 0.16 | 0.13 | 85 | 1018.3 |
| 20260505213052 | 50 | 287 | 0.9 | 3.5 | 0.00 | 0.16 | 0.13 | 86 | 1018.3 |
| 20260505212542 | 50 | 265 | 0.0 | 4.3 | 0.00 | 0.16 | 0.13 | 88 | 1018.2 |
| 20260505212041 | 50 | 226 | 0.9 | 4.3 | 0.00 | 0.16 | 0.13 | 87 | 1018.2 |
| 20260505211545 | 50 | 230 | 0.0 | 3.5 | 0.00 | 0.16 | 0.13 | 87 | 1018.3 |
| 20260505211043 | 49 | 242 | 0.9 | 6.1 | 0.00 | 0.16 | 0.13 | 87 | 1018.4 |
| 20260505210540 | 49 | 277 | 0.9 | 6.1 | 0.00 | 0.16 | 0.13 | 87 | 1018.3 |
| 20260505210040 | 49 | 285 | 1.7 | 7.0 | 0.00 | 0.16 | 0.13 | 86 | 1018.2 |
| 20260505205540 | 49 | 288 | 1.7 | 7.0 | 0.00 | 0.19 | 0.13 | 87 | 1018.1 |
| 20260505205041 | 50 | 284 | 2.6 | 7.0 | 0.00 | 0.19 | 0.13 | 88 | 1018.1 |
| 20260505204540 | 50 | 301 | 2.6 | 4.3 | 0.00 | 0.19 | 0.13 | 88 | 1018.3 |
| 20260505204039 | 50 | 261 | 1.7 | 4.3 | 0.00 | 0.19 | 0.13 | 88 | 1018.2 |
| 20260505203539 | 50 | 240 | 1.7 | 4.3 | 0.00 | 0.19 | 0.13 | 87 | 1018.2 |
| 20260505203039 | 50 | 238 | 2.6 | 6.1 | 0.00 | 0.19 | 0.13 | 86 | 1018.1 |
| 20260505202539 | 50 | 282 | 2.6 | 6.1 | 0.00 | 0.19 | 0.13 | 86 | 1018.1 |
| 20260505202040 | 50 | 283 | 1.7 | 7.8 | 0.00 | 0.19 | 0.13 | 86 | 1017.9 |
| 20260505201539 | 50 | 282 | 2.6 | 7.8 | 0.00 | 0.19 | 0.13 | 86 | 1017.9 |
| 20260505201039 | 50 | 309 | 2.6 | 4.3 | 0.00 | 0.19 | 0.13 | 87 | 1018.0 |
| 20260505200539 | 50 | 288 | 1.7 | 6.1 | 0.00 | 0.19 | 0.13 | 86 | 1018.1 |
| 20260505200040 | 50 | 300 | 1.7 | 7.0 | 0.00 | 0.19 | 0.13 | 86 | 1018.2 |
| 20260505195538 | 50 | 304 | 2.6 | 7.0 | 0.00 | 0.19 | 0.13 | 86 | 1018.1 |
| 20260505195037 | 50 | 291 | 0.9 | 3.5 | 0.00 | 0.19 | 0.13 | 84 | 1018.3 |
| 20260505194537 | 51 | 281 | 0.9 | 7.0 | 0.00 | 0.19 | 0.13 | 85 | 1018.2 |
| 20260505194036 | 51 | 289 | 0.9 | 7.0 | 0.00 | 0.19 | 0.13 | 87 | 1018.2 |
| 20260505193534 | 51 | 297 | 1.7 | 6.1 | 0.00 | 0.19 | 0.13 | 86 | 1018.2 |
| 20260505193033 | 51 | 262 | 1.7 | 6.1 | 0.00 | 0.19 | 0.13 | 87 | 1018.1 |
| 20260505192535 | 51 | 311 | 1.7 | 4.3 | 0.00 | 0.19 | 0.13 | 88 | 1018.2 |
| 20260505192031 | 50 | 273 | 0.9 | 7.0 | 0.00 | 0.19 | 0.13 | 87 | 1018.0 |
| 20260505191533 | 50 | 284 | 1.7 | 7.0 | 0.00 | 0.19 | 0.13 | 88 | 1018.2 |
| 20260505191031 | 50 | 291 | 1.7 | 6.1 | 0.00 | 0.19 | 0.13 | 88 | 1018.1 |
| 20260505190527 | 50 | 288 | 1.7 | 6.1 | 0.00 | 0.19 | 0.13 | 89 | 1018.0 |
| 20260505190027 | 49 | 292 | 0.9 | 6.1 | 0.00 | 0.19 | 0.13 | 89 | 1017.9 |
| 20260505185525 | 49 | 290 | 2.6 | 5.2 | 0.00 | 0.19 | 0.13 | 89 | 1017.9 |
| 20260505185024 | 49 | 248 | 1.7 | 7.0 | 0.00 | 0.19 | 0.13 | 88 | 1017.8 |
| 20260505184524 | 49 | 285 | 2.6 | 7.8 | 0.00 | 0.19 | 0.13 | 88 | 1017.7 |
| 20260505184024 | 49 | 292 | 2.6 | 7.8 | 0.00 | 0.19 | 0.13 | 88 | 1017.7 |
| 20260505183523 | 49 | 303 | 2.6 | 5.2 | 0.00 | 0.19 | 0.13 | 89 | 1017.8 |
| 20260505183033 | 49 | 302 | 1.7 | 4.3 | 0.00 | 0.19 | 0.13 | 89 | 1017.7 |
| 20260505182523 | 49 | 301 | 0.9 | 3.5 | 0.00 | 0.19 | 0.13 | 89 | 1017.8 |
| 20260505182023 | 49 | 287 | 0.9 | 3.5 | 0.00 | 0.19 | 0.13 | 89 | 1017.7 |
| 20260505181522 | 49 | 307 | 0.9 | 3.5 | 0.00 | 0.19 | 0.13 | 89 | 1017.7 |
| 20260505181021 | 49 | 290 | 0.9 | 2.6 | 0.00 | 0.19 | 0.13 | 89 | 1017.8 |
| 20260505180519 | 49 | 293 | 0.0 | 2.6 | 0.00 | 0.19 | 0.13 | 89 | 1017.6 |
| 20260505180038 | 49 | 294 | 0.9 | 2.6 | 0.00 | 0.19 | 0.13 | 90 | 1017.6 |
| 20260505175516 | 48 | 271 | 0.9 | 4.3 | 0.00 | 0.19 | 0.13 | 90 | 1017.6 |
| 20260505175016 | 48 | 290 | 0.0 | 4.3 | 0.00 | 0.19 | 0.13 | 91 | 1017.5 |
| 20260505174515 | 48 | 255 | 0.9 | 3.5 | 0.00 | 0.19 | 0.13 | 91 | 1017.3 |
| 20260505174015 | 48 | 272 | 0.9 | 4.3 | 0.01 | 0.19 | 0.13 | 91 | 1017.3 |
| 20260505173514 | 48 | 278 | 1.7 | 6.1 | 0.01 | 0.19 | 0.13 | 91 | 1017.3 |
| 20260505173014 | 48 | 288 | 1.7 | 6.1 | 0.01 | 0.19 | 0.13 | 91 | 1017.2 |
| 20260505172516 | 48 | 240 | 0.9 | 4.3 | 0.01 | 0.19 | 0.13 | 92 | 1017.1 |
| 20260505172017 | 48 | 284 | 1.7 | 4.3 | 0.01 | 0.19 | 0.13 | 92 | 1017.3 |
| 20260505171513 | 48 | 219 | 1.7 | 4.3 | 0.01 | 0.19 | 0.13 | 92 | 1017.1 |
| 20260505171114 | 48 | 263 | 1.7 | 3.5 | 0.01 | 0.19 | 0.13 | 92 | 1017.0 |
| 20260505170512 | 48 | 253 | 1.7 | 3.5 | 0.01 | 0.19 | 0.13 | 92 | 1017.1 |
| 20260505170012 | 47 | 250 | 1.7 | 3.5 | 0.01 | 0.20 | 0.13 | 92 | 1017.2 |
| 20260505165509 | 47 | 215 | 1.7 | 5.2 | 0.01 | 0.20 | 0.13 | 92 | 1017.1 |
| 20260505165011 | 47 | 248 | 0.9 | 3.5 | 0.01 | 0.20 | 0.13 | 92 | 1016.8 |
| 20260505164509 | 47 | 281 | 1.7 | 6.1 | 0.00 | 0.19 | 0.12 | 93 | 1016.9 |
| 20260505164009 | 47 | 229 | 1.7 | 7.0 | 0.00 | 0.19 | 0.12 | 93 | 1017.0 |
| 20260505163513 | 48 | 288 | 1.7 | 7.0 | 0.00 | 0.19 | 0.12 | 93 | 1017.0 |
| 20260505163008 | 47 | 242 | 0.9 | 4.3 | 0.00 | 0.19 | 0.12 | 93 | 1016.9 |
| 20260505162505 | 47 | 211 | 1.7 | 3.5 | 0.00 | 0.19 | 0.12 | 93 | 1017.0 |
| 20260505162003 | 47 | 245 | 0.9 | 3.5 | 0.00 | 0.19 | 0.12 | 93 | 1017.0 |
| 20260505161504 | 47 | 286 | 0.9 | 3.5 | 0.00 | 0.19 | 0.12 | 93 | 1016.9 |
| 20260505161003 | 47 | 284 | 0.0 | 0.0 | 0.00 | 0.19 | 0.12 | 93 | 1016.9 |
| 20260505160501 | 47 | 284 | 0.0 | 0.0 | 0.00 | 0.19 | 0.12 | 93 | 1016.9 |
| 20260505153058 | 46 | 284 | 0.0 | 1.7 | 0.01 | 0.19 | 0.12 | 93 | 1016.8 |
| 20260505152557 | 46 | 284 | 0.0 | 0.0 | 0.01 | 0.19 | 0.12 | 93 | 1016.9 |
| 20260505152059 | 46 | 284 | 0.0 | 0.9 | 0.01 | 0.19 | 0.12 | 93 | 1016.8 |
| 20260505151554 | 46 | 284 | 0.0 | 0.9 | 0.01 | 0.19 | 0.12 | 93 | 1016.9 |
| 20260505151054 | 45 | 284 | 0.0 | 0.9 | 0.01 | 0.19 | 0.12 | 93 | 1016.8 |
| 20260505150554 | 45 | 284 | 0.0 | 0.9 | 0.01 | 0.19 | 0.12 | 93 | 1016.8 |
| 20260505140544 | 44 | 284 | 0.0 | 1.7 | 0.01 | 0.21 | 0.11 | 93 | 1016.4 |